Rome, NY

12:32 PM EDT on April 28, 2017 (GMT -0400)
Griffiss

Weather History for KRME - March, 2013

Change the Weather History Date:

Sunday, March 31, 2013

  Actual Average Record
Temperature  
Mean Temperature 39 °F -  
Max Temperature 54 °F 52 °F 66 °F (2016)
Min Temperature 26 °F 30 °F 18 °F (1991)
Degree Days  
Heating Degree Days 26    
Moisture  
Dew Point 30 °F    
Average Humidity 75    
Maximum Humidity 97    
Minimum Humidity 37    
Precipitation  
Precipitation 0.09 in - - ()
Sea Level Pressure  
Sea Level Pressure 29.90 in    
Wind  
Wind Speed 6 mph (SE)    
Max Wind Speed 15 mph    
Max Gust Speed 20 mph    
Visibility 9 miles    
Events Rain    
Averages and records for this station are not official NWS values.
T = Trace of Precipitation, MM = Missing Value Source: NWS Daily Summary

Daily Weather History Graph

Daily Weather History Graph

Search for Another Location

Airport or City:

Trip Planner

Search our weather history database for the weather conditions in past years. The results will help you decide how hot, cold, wet, or windy it might be!

Date:

Astronomy

Mar. 31, 2013 Rise Set
Actual Time 6:44 AM EDT 7:27 PM EDT
Civil Twilight 6:16 AM EDT 7:56 PM EDT
Nautical Twilight 5:42 AM EDT 8:30 PM EDT
Astronomical Twilight 5:06 AM EDT 9:05 PM EDT
Moon No Moon Rise 9:23 AM EDT (3/31)
Length of Visible Light 13h 39m
Length of Day
12h 42m
Waning Gibbous, 78% of the Moon is Illuminated
Mar 31
Waning Gibbous
Apr 3
Last Quarter
Apr 10
New
Apr 18
First Quarter
Apr 25
Full

Hourly Weather History & Observations

Time (EDT) Temp. Windchill Dew Point Humidity Pressure Visibility Wind Dir Wind Speed Gust Speed Precip Events Conditions
12:53 AM 27.0 °F 23.0 °F 21.0 °F 78% 30.12 in 10.0 mi SE 3.5 mph - N/A   Clear
1:53 AM 27.0 °F - 19.9 °F 75% 30.11 in 10.0 mi Calm Calm - N/A   Clear
2:53 AM 27.0 °F 21.6 °F 19.9 °F 75% 30.10 in 10.0 mi SE 4.6 mph - N/A   Clear
3:53 AM 26.1 °F 21.9 °F 19.9 °F 78% 30.07 in 10.0 mi SE 3.5 mph - N/A   Clear
4:53 AM 27.0 °F 23.0 °F 19.9 °F 75% 30.05 in 10.0 mi SSE 3.5 mph - N/A   Clear
5:53 AM 28.0 °F 20.8 °F 19.9 °F 72% 30.03 in 10.0 mi SSE 6.9 mph - N/A   Clear
6:53 AM 28.0 °F 20.0 °F 21.0 °F 75% 30.02 in 10.0 mi SSE 8.1 mph - N/A   Clear
7:53 AM 30.9 °F 24.3 °F 24.1 °F 76% 30.01 in 10.0 mi SSE 6.9 mph - N/A   Clear
8:53 AM 37.9 °F 33.5 °F 26.1 °F 62% 29.99 in 10.0 mi SE 5.8 mph - N/A   Clear
9:53 AM 43.0 °F 37.7 °F 25.0 °F 49% 29.97 in 10.0 mi ESE 9.2 mph - N/A   Clear
10:53 AM 46.9 °F - 26.1 °F 44% 29.93 in 10.0 mi SE 9.2 mph - N/A   Clear
11:53 AM 52.0 °F - 26.1 °F 37% 29.89 in 10.0 mi SE 11.5 mph 19.6 mph N/A   Clear
3:53 PM 45.0 °F 38.2 °F 39.9 °F 82% 29.83 in 5.0 mi South 15.0 mph - 0.01 in Rain Light Rain
4:53 PM 44.1 °F 40.1 °F 39.9 °F 85% 29.81 in 7.0 mi SSE 6.9 mph - 0.03 in Rain Light Rain
5:53 PM 43.0 °F 40.3 °F 41.0 °F 93% 29.78 in 9.0 mi ENE 4.6 mph - 0.01 in   Overcast
6:53 PM 43.0 °F 39.5 °F 39.9 °F 89% 29.75 in 10.0 mi East 5.8 mph - N/A   Overcast
7:53 PM 44.1 °F 39.0 °F 39.0 °F 82% 29.73 in 10.0 mi ESE 9.2 mph - 0.00 in Rain Light Rain
8:53 PM 45.0 °F 40.1 °F 37.9 °F 76% 29.73 in 10.0 mi SSE 9.2 mph - 0.00 in Rain Light Rain
9:18 PM 44.1 °F 40.1 °F 37.9 °F 79% 29.73 in 10.0 mi SSE 6.9 mph - 0.00 in Rain Light Rain
9:53 PM 44.1 °F 38.1 °F 37.9 °F 79% 29.74 in 10.0 mi SSE 11.5 mph - 0.00 in Rain Light Rain
10:53 PM 42.1 °F 38.4 °F 37.9 °F 85% 29.73 in 6.0 mi SE 5.8 mph - 0.02 in Rain Light Rain
11:53 PM 39.9 °F 35.1 °F 39.0 °F 97% 29.70 in 6.0 mi ESE 6.9 mph - 0.02 in Rain Light Rain